Hourly Data Report for October 15, 2015

All times are specified in Local Standard Time (LST). Add 1 hour to adjust for Daylight Saving Time where and when it is observed.

TORONTO INTL A
ONTARIO

43°40'36.000" N
79°37'50.000" W
173.40 m
6158731
71624
YYZ

Download Data

Hourly Data (October 2015)
Hourly Data Report for October 15, 2015
Temp Definition
°C
Dew Point Temp Definition
°C
Rel Hum Definition
%
Wind Dir Definition
10's deg

Wind Spd Definition
km/h
Visibility Definition
km
Stn Press Definition
kPa
Hmdx Definition


Wind Chill Definition


Weather Definition


TIME
00:00 Legend Double Dagger 6.3 2.0 74 23 8 24.1 99.24     LegendNANA
01:00 Legend Double Dagger 5.6 2.1 78 22 9 24.1 99.23     Clear
02:00 Legend Double Dagger 5.7 2.5 80 21 10 24.1 99.19     LegendNANA
03:00 Legend Double Dagger 5.8 2.3 78 21 9 24.1 99.17     LegendNANA
04:00 Legend Double Dagger 5.6 2.4 80 21 9 24.1 99.12     Clear
05:00 Legend Double Dagger 4.8 2.5 85 26 17 24.1 99.14     LegendNANA
06:00 Legend Double Dagger 5.7 2.7 81 24 7 24.1 99.14     LegendNANA
07:00 Legend Double Dagger 7.2 2.9 74 23 14 24.1 99.13     Mostly Cloudy
08:00 Legend Double Dagger 8.7 3.2 68 20 11 24.1 99.09     LegendNANA
09:00 Legend Double Dagger 12.0 5.7 65 25 18 24.1 99.13     LegendNANA
10:00 Legend Double Dagger 13.8 6.5 61 25 23 24.1 99.08     Clear
11:00 Legend Double Dagger 15.6 5.9 52 22 22 24.1 99.03     LegendNANA
12:00 Legend Double Dagger 17.6 4.0 40 23 25 24.1 98.95     LegendNANA
13:00 Legend Double Dagger 17.1 3.5 40 23 31 24.1 98.86     Mostly Cloudy
14:00 Legend Double Dagger 16.8 2.5 38 23 35 24.1 98.77     Rain Showers
15:00 Legend Double Dagger 17.1 2.8 38 24 32 24.1 98.68     Rain Showers
16:00 Legend Double Dagger 16.3 2.8 40 23 30 24.1 98.66     Mostly Cloudy
17:00 Legend Double Dagger 11.1 7.3 77 23 18 24.1 98.73     LegendNANA
18:00 Legend Double Dagger 11.2 6.8 74 25 26 24.1 98.76     LegendNANA
19:00 Legend Double Dagger 10.4 5.6 72 27 16 24.1 98.92     Rain Showers
20:00 Legend Double Dagger 8.8 6.4 85 26 31 9.7 99.04     Moderate Rain Showers
21:00 Legend Double Dagger 8.8 6.3 84 25 18 24.1 98.97     LegendNANA
22:00 Legend Double Dagger 8.8 5.7 81 27 25 24.1 99.00     Mostly Cloudy
23:00 Legend Double Dagger 8.8 5.2 78 27 29 24.1 99.01     LegendNANA

Notes on Data Quality.

Legend

  • E = Estimated
  • M = Missing
  • NA = Not Available
  • ‡ = Partner data that is not subject to review by the National Climate Archives
Date modified: